Home   Weather   St. Pölten   Past weeks

Flag for Austria Past Weather in St. Pölten, Lower Austria, Austria — Yesterday and Last 2 Weeks

Now
55 °F

Broken clouds.


Feels Like: 53 °F
Forecast: 31 / 60 °F
Wind: 8 mph from Southwest

Location: Tulln Airport

Current Time: Apr 29, 2017 at 5:28:45 pm

Latest Report: Apr 29, 2017 at 4:50 pm


Visibility: 12 mi

Pressure: 30.04 "Hg

Humidity: 47%

Dew Point: 36 °F

Location of St. PöltenLocation

Past Weather in St. Pölten — Graph

°F

St. Pölten Temperature Yesterday

Maximum temperature yesterday: 45 °F (at 11:50 am)
Minimum temperature yesterday: 39 °F (at 5:50 am)
Average temperature yesterday: 42 °F

High & Low Weather Summary for the Past Weeks

 TemperatureHumidityPressure
High72 °F (Apr 25, 1:50 pm)100% (Apr 19, 3:20 pm)30.45 "Hg (Apr 19, 3:20 pm)
Low34 °F (Apr 19, 6:50 am)31% (Apr 23, 4:50 pm)29.65 "Hg (Apr 25, 5:50 pm)
Average48 °F70%30.00 "Hg
* Reported Apr 14 3:50 pm — Apr 29 3:50 pm, St. Pölten, Weather by CustomWeather, © 2017

Note: Actual official high and low records may vary slightly from our data, if they occured in-between our weather recording intervals... More about our weather records

Advertising

St. Pölten Weather History for the Previous 24 Hours

Scroll right to see more
 ConditionsComfort  
Time TempWeatherWind HumidityBarometerVisibility
3:50 pm
Sat, Apr 29
55 °FBroken clouds.14 mph51%30.04 "Hg12 mi
2:50 pm55 °FBroken clouds.13 mph55%30.04 "Hg12 mi
1:50 pm55 °FBroken clouds.15 mph59%30.04 "Hg9 mi
12:50 pm55 °FPartly sunny.15 mph59%30.07 "Hg9 mi
11:50 am54 °FPartly sunny.14 mph63%30.07 "Hg9 mi
10:50 am52 °FScattered clouds.16 mph62%30.09 "Hg9 mi
9:50 am48 °FBroken clouds.13 mph71%30.09 "Hg9 mi
8:50 am46 °FScattered clouds.14 mph76%30.07 "Hg7 mi
7:50 am43 °FPassing clouds.12 mph87%30.07 "Hg7 mi
6:50 am39 °FPartly sunny.12 mph93%30.07 "Hg6 mi
6:20 am39 °FPartly sunny.12 mph87%30.04 "Hg5 mi
10:50 pm
Fri, Apr 28
41 °FPartly cloudy.20 mph87%29.95 "Hg5 mi
9:50 pm41 °FPartly cloudy.21 mph87%29.92 "Hg5 mi
8:50 pm41 °FPartly cloudy.16 mph87%29.89 "Hg5 mi
7:50 pm43 °FLight rain. Broken clouds.17 mph87%29.86 "Hg6 mi
6:50 pm43 °FBroken clouds.13 mph87%29.86 "Hg7 mi
5:50 pm43 °FLight rain. Broken clouds.12 mph87%29.83 "Hg5 mi
Weather by CustomWeather, © 2017

See weather overviewHow to use our weather pages